Weather History for Corsicana, TX

Change the Weather History Date:

Wednesday, January 9, 2013

  Actual Average (KACT) Record (KACT)
Temperature  
Mean Temperature 56 °F 47 °F  
Max Temperature 60 °F 58 °F 81 °F (1949)
Min Temperature 52 °F 36 °F 8 °F (2010)
Degree Days  
Heating Degree Days 9 18  
Month to date heating degree days 167  
Since 1 July heating degree days 1019  
Cooling Degree Days 0 0  
Month to date cooling degree days 0  
Year to date cooling degree days 0  
Growing Degree Days 6 (Base 50)    
Moisture  
Dew Point 55 °F    
Average Humidity 97    
Maximum Humidity 100    
Minimum Humidity 93    
Precipitation  
Precipitation 3.12 in 0.06 in 3.79 in (2013)
Month to date precipitation 0.60  
Year to date precipitation 0.60  
Snow  
Snow 0.00 in 0.00 in T in (1977)
Month to date snowfall 0.1  
Since 1 July snowfall 0.2  
Snow Depth -    
Sea Level Pressure  
Sea Level Pressure 30.03 in    
Wind  
Wind Speed 11 mph (NE)    
Max Wind Speed 22 mph    
Max Gust Speed 31 mph    
Visibility 4 miles    
Events Rain , Thunderstorm    
T = Trace of Precipitation, MM = Missing Value Source: NWS Daily Summary

Daily Weather History Graph

Daily Weather History Graph

Search for Another Location

Airport:

Trip Planner

Search our weather history database for the weather conditions in past years. The results will help you decide how hot, cold, wet, or windy it might be!

Date:

Astronomy

Jan. 09, 2013 Rise Set
Actual Time 7:27 AM CST 5:38 PM CST
Civil Twilight 7:00 AM CST 6:05 PM CST
Nautical Twilight 6:30 AM CST 6:35 PM CST
Astronomical Twilight 6:00 AM CST 7:05 PM CST
Moon 5:07 AM CST (1/9) 3:42 PM CST (1/9)
Length of Visible Light 11h 05m
Length of Day
10h 11m
Waning Crescent, 6% of the Moon is Illuminated
Jan 9
Waning Crescent
Jan 11
New
Jan 18
First Quarter
Jan 26
Full
Feb 3
Last Quarter

Hourly Weather History & Observations

Time (CST) Temp. Dew Point Humidity Pressure Visibility Wind Dir Wind Speed Gust Speed Precip Events Conditions
12:03 AM 53.6 °F 53.6 °F 100% 30.04 in 2.0 mi North 11.5 mph - 0.03 in Rain Rain
12:28 AM 53.6 °F 53.6 °F 100% 30.03 in 3.0 mi NNE 11.5 mph - 0.06 in Rain Light Rain
12:53 AM 54.0 °F 53.1 °F 97% 30.04 in 5.0 mi North 10.4 mph - 0.07 in Rain Light Rain
1:21 AM 53.6 °F 51.8 °F 94% 30.03 in 2.5 mi North 13.8 mph - 0.07 in Rain Rain
1:32 AM 53.6 °F 51.8 °F 94% 30.03 in 3.0 mi North 13.8 mph - 0.10 in Rain Rain
1:53 AM 52.0 °F 51.1 °F 97% 30.04 in 5.0 mi NNE 11.5 mph - 0.13 in Rain Light Rain
2:14 AM 53.6 °F 51.8 °F 94% 30.04 in 2.0 mi NNE 9.2 mph 19.6 mph 0.10 in Rain Heavy Rain
2:31 AM 53.6 °F 51.8 °F 94% 30.04 in 3.0 mi NNE 9.2 mph - 0.16 in Rain Heavy Rain
2:42 AM 53.6 °F 53.6 °F 100% 30.05 in 2.0 mi NNE 8.1 mph - 0.23 in Rain Heavy Rain
2:53 AM 54.0 °F 53.1 °F 97% 30.04 in 3.0 mi NNE 11.5 mph - 0.28 in Rain Heavy Rain
3:01 AM 53.6 °F 53.6 °F 100% 30.04 in 2.5 mi North 9.2 mph - 0.04 in Rain Heavy Rain
3:38 AM 55.4 °F 53.6 °F 94% 30.04 in 1.8 mi NNE 9.2 mph - 0.30 in Rain Heavy Rain
3:53 AM 55.0 °F 54.0 °F 96% 30.04 in 2.0 mi NNE 8.1 mph - 0.39 in Rain Heavy Rain
4:53 AM 54.0 °F 53.1 °F 97% 30.04 in 2.0 mi NNE 11.5 mph - 0.33 in Rain Heavy Rain
5:17 AM 53.6 °F 53.6 °F 100% 30.03 in 3.0 mi NNE 11.5 mph - 0.13 in Rain Heavy Rain
5:53 AM 54.0 °F 53.1 °F 97% 30.02 in 2.5 mi NE 13.8 mph 20.7 mph 0.34 in Rain Heavy Rain
6:05 AM 53.6 °F 53.6 °F 100% 30.02 in 3.0 mi NE 11.5 mph 19.6 mph 0.05 in Rain Heavy Rain
6:41 AM 53.6 °F 53.6 °F 100% 30.04 in 2.0 mi NE 11.5 mph - 0.21 in Rain Heavy Rain
6:53 AM 54.0 °F 53.1 °F 97% 30.04 in 2.5 mi NE 12.7 mph - 0.27 in Rain Heavy Rain
7:10 AM 53.6 °F 53.6 °F 100% 30.05 in 2.5 mi NE 11.5 mph - 0.08 in Rain Heavy Rain
7:17 AM 53.6 °F 53.6 °F 100% 30.05 in 2.5 mi NNE 11.5 mph - 0.11 in Rain Heavy Rain
7:19 AM 53.6 °F 53.6 °F 100% 30.05 in 2.5 mi NNE 11.5 mph - 0.12 in Rain Heavy Rain
7:53 AM 54.0 °F 53.1 °F 97% 30.07 in 2.0 mi NNE 5.8 mph - 0.33 in Rain Heavy Rain
8:02 AM 53.6 °F 53.6 °F 100% 30.08 in 1.5 mi NNE 6.9 mph - 0.08 in Rain Heavy Rain
8:19 AM 53.6 °F 53.6 °F 100% 30.08 in 2.0 mi NNE 9.2 mph - 0.20 in Rain Heavy Rain
8:30 AM 53.6 °F 53.6 °F 100% 30.08 in 1.2 mi NNE 10.4 mph - 0.27 in Rain Heavy Rain
8:53 AM 54.0 °F 53.1 °F 97% 30.08 in 1.5 mi NNE 11.5 mph - 0.37 in Rain Heavy Rain
9:12 AM 53.6 °F 53.6 °F 100% 30.08 in 2.0 mi NE 11.5 mph - 0.06 in Rain Heavy Rain
9:53 AM 55.0 °F 54.0 °F 96% 30.09 in 2.0 mi NNE 12.7 mph - 0.18 in Rain Rain
10:43 AM 55.4 °F 53.6 °F 94% 30.08 in 5.0 mi NE 12.7 mph - 0.10 in Rain Light Rain
10:53 AM 55.0 °F 54.0 °F 96% 30.07 in 6.0 mi NE 12.7 mph - 0.11 in Rain Light Rain
11:53 AM 55.9 °F 55.0 °F 97% 30.02 in 5.0 mi ENE 16.1 mph 24.2 mph 0.04 in Rain Light Rain
12:32 PM 57.2 °F 57.2 °F 100% 30.04 in 2.5 mi ENE 10.4 mph - 0.05 in Rain Rain
12:41 PM 57.2 °F 57.2 °F 100% 30.03 in 4.0 mi ENE 12.7 mph - 0.06 in Rain Light Rain
12:53 PM 57.9 °F 57.0 °F 97% 30.02 in 8.0 mi ENE 11.5 mph 19.6 mph 0.06 in Rain Light Rain
1:53 PM 57.9 °F 57.0 °F 97% 29.97 in 8.0 mi East 12.7 mph 25.3 mph 0.02 in Rain Light Rain
2:31 PM 59.0 °F 57.2 °F 94% 30.00 in 4.0 mi ENE 10.4 mph - 0.03 in Rain Rain
2:53 PM 59.0 °F 57.9 °F 96% 30.01 in 6.0 mi East 10.4 mph - 0.05 in Rain Light Rain
3:53 PM 59.0 °F 57.9 °F 96% 30.02 in 4.0 mi ENE 10.4 mph - 0.06 in Rain Rain
4:04 PM 59.0 °F 57.2 °F 94% 30.03 in 4.0 mi ENE 9.2 mph - 0.02 in Rain , Thunderstorm Rain
4:19 PM 59.0 °F 57.2 °F 94% 30.03 in 4.0 mi ENE 10.4 mph - 0.04 in Rain Light Rain
4:53 PM 59.0 °F 57.9 °F 96% 30.01 in 5.0 mi ENE 11.5 mph - 0.07 in Rain Rain
5:16 PM 57.2 °F 57.2 °F 100% 29.96 in 6.0 mi ENE 16.1 mph 21.9 mph 0.00 in Rain Light Rain
5:53 PM 59.0 °F 57.9 °F 96% 29.92 in 10.0 mi ENE 20.7 mph 31.1 mph 0.00 in   Overcast
6:29 PM 59.0 °F 57.2 °F 94% 29.97 in 10.0 mi East 16.1 mph 24.2 mph N/A   Overcast
6:53 PM 59.0 °F 57.0 °F 93% 29.96 in 10.0 mi East 21.9 mph 31.1 mph N/A   Overcast
7:53 PM 60.1 °F 57.9 °F 93% 29.99 in 10.0 mi East 15.0 mph 23.0 mph N/A   Overcast
8:53 PM 60.1 °F 57.9 °F 93% 30.01 in 2.0 mi ENE 5.8 mph - 0.00 in Rain Light Rain
9:08 PM 60.8 °F 59.0 °F 94% 30.03 in 4.0 mi ENE 3.5 mph - 0.00 in   Overcast
9:53 PM 59.0 °F 57.9 °F 96% 30.02 in 1.5 mi NE 5.8 mph - 0.01 in Rain Light Rain
10:04 PM 59.0 °F 57.2 °F 94% 30.02 in 2.0 mi NE 6.9 mph - 0.01 in Rain Light Rain
10:11 PM 59.0 °F 57.2 °F 94% 30.01 in 1.5 mi NE 8.1 mph - 0.01 in Rain Light Rain
10:37 PM 59.0 °F 57.2 °F 94% 30.01 in 2.0 mi ENE 8.1 mph - 0.01 in   Overcast
10:53 PM 59.0 °F 57.9 °F 96% 30.00 in 2.0 mi ENE 9.2 mph - 0.01 in Rain Light Rain
11:22 PM 59.0 °F 59.0 °F 100% 30.01 in 1.8 mi ENE 8.1 mph - 0.00 in Rain Light Rain
11:30 PM 59.0 °F 59.0 °F 100% 30.01 in 2.0 mi ENE 8.1 mph - 0.00 in Rain Light Rain
11:53 PM 59.0 °F 59.0 °F 100% 30.00 in 2.0 mi ENE 8.1 mph - 0.00 in Rain Light Rain